Regional Weather Roundup
Issued by NWS Kansas City/Pleasant Hill, MO

Home | Current Version | Previous Version | Text Only | Print | Product List | Glossary On
Versions: 1 2 3 4 5 6 7 8 9 10 11 12 13 14 15 16 17 18 19 20 21 22 23 24 25 26 27 28 29 30 31 32 33 34 35 36 37 38 39 40 41 42 43 44 45 46 47 48 49 50
667
ASUS43 KEAX 270310
RWREAX

WEATHER ROUNDUP FOR EASTERN KANSAS AND NORTHWEST MISSOURI
NATIONAL WEATHER SERVICE KANSAS CITY/PLEASANT HILL MO
1000 PM CDT MON JUN 26 2017

KSZ040-057-103>105-MOZ028-029-037-043-270400-
...KANSAS CITY METROPOLITAN AREA...

CITY           SKY/WX    TMP DP  RH WIND       PRES   REMARKS
K.C. INTL      PTCLDY    60  59  96 CALM      30.11R
K.C. DOWNTOWN  PTCLDY    65  57  75 CALM      30.10R
LEES SUMMIT    CLOUDY    63  60  90 SE3       30.12S
OLATHE - IXD   PTCLDY    63  58  83 SE5       30.12R
OLATHE - OJC   PTCLDY    63  58  83 SE3       30.11R
LAWRENCE       CLEAR     60  60 100 CALM      30.11R FOG

$$

MOZ001>008-011>017-020>025-030>033-038>040-044>046-053-054-270400-
...NORTHERN AND CENTRAL MISSOURI...

CITY           SKY/WX    TMP DP  RH WIND       PRES   REMARKS
ST. JOSEPH     CLEAR     60  60 100 CALM      30.12R
MOSBY          CLEAR     61  61 100 CALM      30.12R
WARRENSBURG    CLOUDY    61  59  94 CALM      30.12S
WHITEMAN AFB   CLOUDY    62  62 100 SE3       30.10S
CLINTON        CLOUDY    64  57  77 S3        30.10F
SEDALIA        PTCLDY    63  62  97 CALM      30.13S
WARSAW         NOT AVBL
CHILLICOTHE      N/A     61  59  93 CALM      30.13R
KIRKSVILLE     CLEAR     60  56  86 W5        30.12R

$$

MOZ041-047>049-056>058-063>065-088>090-097-270400-
...EASTERN AND SOUTHERN MISSOURI...

CITY           SKY/WX    TMP DP  RH WIND       PRES   REMARKS
ST. LOUIS INTL PTCLDY    66  54  65 W6        30.12R
SPIRIT OF STL  CLOUDY    60  57  89 W5        30.11R
COLUMBIA       PTCLDY    63  60  90 CALM      30.13R
JEFFERSON CITY PTCLDY    64  61  90 NE3       30.12S
ROLLA          LGT RAIN  61  58  90 NE5       30.13R
OSAGE BEACH    LGT RAIN  62  60  93 S9        30.13S
SPRINGFIELD    LGT RAIN  64  58  80 E9        30.10S
BRANSON          N/A     63  59  88 E6        30.13R
JOPLIN         PTCLDY    68  65  90 SE7       30.06F
WEST PLAINS    CLOUDY    62  59  90 SE3       30.14S

$$

IAZ060-094-KSZ022-034>040-054-083-096-NEZ052-066-093-270400-
...KANSAS...SOUTHEAST NEBRASKA AND IOWA...

CITY           SKY/WX    TMP DP  RH WIND       PRES   REMARKS
TOPEKA         CLEAR     63  63 100 SE3       30.11R
MANHATTAN      CLEAR     65  61  87 NE5       30.09R
EMPORIA        CLOUDY    65  60  84 E15       30.07F
CHANUTE        LGT RAIN  69  63  81 NE15      30.09R
WICHITA        LGT RAIN  68  65  90 E16       30.05R
OMAHA          PTCLDY    60  52  74 N5        30.12R
LINCOLN        CLEAR     68  51  54 E5        30.13R
FALLS CITY     CLEAR     64  59  83 CALM      30.12R
LAMONI         PTCLDY    64  53  67 CALM      30.12R
DES MOINES     CLEAR     66  43  43 N5        30.13R

$$





USA.gov is the U.S. government's official web portal to all federal, state and local government web resources and services.